Wind_Speed
35 37 39 41 42 41 36 33 28 22 29 33 32 22 26 27 27 28 25 23 22 21 23 21 19 17 17 17 17 17 14 13 12 10 8 7 6 5 2 1 4 6 8 10 10 9 10 12 13
38 38 41 42 48 46 38 33 29 27 18 36 29 24 25 28 27 16 10 18 21 20 22 21 19 18 18 17 17 18 16 15 13 12 9 8 8 6 3 2 4 6 8 9 10 11 13 13 14
42 43 43 46 49 51 41 28 28 28 29 33 31 26 30 24 24 21 19 17 17 20 22 22 20 18 19 18 17 20 19 18 15 13 11 10 9 7 4 3 4 6 7 9 11 12 14 15 16
45 47 49 50 50 45 43 28 22 29 31 38 33 29 30 27 27 30 20 20 20 23 22 22 21 21 21 19 18 20 20 19 17 14 13 12 10 8 6 6 6 7 8 10 11 12 14 16 17
52 52 53 54 48 43 43 44 24 31 30 40 36 34 33 30 30 23 20 23 21 23 22 22 22 22 22 20 19 21 21 20 18 16 15 13 11 10 9 8 8 9 10 11 12 14 15 17 19
56 56 58 56 49 44 45 46 42 40 33 30 40 39 38 29 29 26 21 27 29 23 21 23 23 23 23 22 21 21 22 21 20 18 16 15 13 13 12 11 11 11 12 13 14 15 16 17 18
58 58 60 56 52 49 48 48 56 54 40 30 41 40 43 34 31 28 25 16 19 26 21 19 23 25 24 23 21 22 22 21 20 19 18 17 16 16 14 13 14 14 14 16 17 17 17 18 19
61 61 63 62 57 53 50 50 53 52 44 32 36 42 43 40 36 29 27 24 18 21 23 21 23 27 26 25 22 22 22 21 20 21 21 20 19 18 16 16 16 15 17 18 19 19 18 20 20
62 67 68 62 60 56 42 47 56 45 51 46 43 38 54 39 39 33 28 25 22 27 23 23 30 29 30 27 26 25 23 21 22 23 23 22 21 19 18 18 18 17 19 21 21 21 22 22 23
64 69 67 60 57 57 51 49 56 51 51 52 53 46 52 36 39 35 30 28 28 28 28 28 31 31 32 28 27 26 23 24 25 24 24 23 22 20 20 20 20 20 22 24 25 27 26 27 27
68 67 64 64 58 54 53 58 61 51 51 56 50 50 42 39 41 38 33 29 29 30 32 33 31 32 32 31 29 26 26 25 25 23 22 21 21 22 20 21 21 24 27 30 31 31 33 31 31
53 68 66 66 66 64 67 64 60 53 50 52 49 48 48 44 44 40 36 33 32 31 32 31 34 34 34 32 28 27 26 24 24 21 21 20 20 20 21 21 24 28 31 35 33 36 38 36 39
47 53 68 67 69 75 68 67 62 54 54 55 59 58 56 43 44 40 38 35 36 34 32 31 33 33 31 31 26 25 24 23 20 21 19 19 19 20 20 22 27 31 33 35 37 38 39 40 42
41 47 61 72 70 72 71 63 64 60 55 58 60 59 50 44 43 41 40 38 39 35 33 32 29 29 30 27 26 23 23 20 20 18 17 17 18 19 21 25 30 34 36 37 41 42 42 43 47
35 40 55 69 72 71 68 66 64 59 53 59 57 55 52 48 45 42 39 41 42 39 34 30 33 29 27 25 24 22 22 20 18 17 17 17 19 21 25 29 33 35 37 39 43 49 55 54 54
34 35 49 63 74 71 69 68 60 60 59 55 57 55 56 51 46 43 40 41 44 43 37 31 33 27 28 26 23 23 24 22 19 18 18 20 22 23 30 34 35 40 42 47 52 54 58 63 61
33 31 35 51 72 66 67 69 64 58 56 58 59 56 58 54 51 47 44 43 41 43 40 39 42 30 19 29 27 26 29 24 21 20 21 22 24 29 33 38 39 42 47 52 55 54 27 21 26
22 23 24 30 48 66 64 69 61 58 57 57 54 56 57 56 52 52 48 44 42 44 45 42 35 35 29 30 32 32 28 21 22 22 21 24 27 31 36 39 40 40 36 44 50 22 20 17 16
27 24 16 24 29 53 65 69 66 61 60 59 57 60 60 60 56 52 53 50 46 46 41 35 33 31 31 30 18 25 23 22 21 23 24 27 31 36 39 38 38 31 28 28 4 5 15 21 19
36 32 23 21 27 43 52 67 67 58 62 59 58 57 57 62 57 53 55 51 48 46 41 36 35 35 33 30 26 26 25 25 24 27 30 33 36 37 38 36 23 16 14 12 15 17 20 24 24
29 28 19 19 20 44 57 66 69 62 60 61 58 57 59 62 59 55 53 52 52 52 44 36 35 40 33 27 28 27 26 25 29 31 33 32 33 30 26 16 13 13 13 14 15 18 20 21 20
18 17 29 27 28 32 48 58 65 62 60 61 61 62 60 60 60 56 56 57 62 52 45 36 34 34 25 30 30 29 30 31 30 27 27 29 28 28 19 12 9 10 13 15 18 18 17 18 22
20 28 24 23 26 34 26 51 43 61 61 60 62 61 60 61 62 61 68 60 51 35 37 37 37 37 37 35 33 36 34 31 27 28 26 26 23 17 10 7 7 11 13 16 16 16 17 21 27
21 20 21 23 26 32 34 45 41 49 57 54 59 59 58 60 65 65 50 37 35 43 44 46 40 43 41 36 34 28 26 28 25 24 22 20 17 11 7 7 10 13 14 15 14 18 21 26 29
22 18 12 17 21 29 36 47 35 28 57 51 54 57 58 60 65 67 58 52 48 44 42 37 41 32 36 32 27 32 33 27 21 23 19 18 11 6 6 9 11 12 14 14 17 20 23 25 28
17 23 17 16 17 21 25 38 46 39 37 51 52 56 58 63 64 62 60 59 58 51 46 45 42 34 32 27 21 27 24 23 21 22 17 12 7 6 6 10 13 15 15 16 19 20 22 24 26
21 26 20 18 28 22 26 28 45 43 54 57 54 59 60 64 64 61 57 63 69 56 49 45 29 30 30 20 23 22 23 22 20 19 15 9 8 7 10 13 14 16 17 18 18 19 22 23 24
25 20 25 24 21 22 24 29 34 50 50 62 56 57 60 62 64 59 59 53 61 52 50 47 37 39 35 22 25 24 22 18 19 17 12 9 8 9 11 13 15 17 18 18 20 20 22 22 22
23 26 28 23 21 21 26 29 28 28 53 58 61 55 61 63 60 56 59 71 50 55 50 47 43 37 29 30 26 22 19 17 17 17 11 8 9 11 12 13 15 17 19 19 20 20 21 21 21
25 23 23 25 26 34 24 33 22 31 38 55 63 58 54 60 58 62 63 75 56 49 51 48 44 41 36 33 26 22 19 19 17 15 11 10 11 13 13 14 16 18 20 18 19 20 20 21 22
Wind_Direction
233 230 228 227 227 227 226 219 215 227 227 224 229 214 220 227 212 215 212 207 202 207 204 205 211 211 204 195 193 201 206 211 206 206 197 189 192 208 202 10 7 354 355 359 357 353 353 351 348
237 232 230 229 226 226 221 221 224 226 231 235 229 226 220 233 225 232 191 203 203 202 203 207 209 214 205 201 194 201 210 218 214 211 209 202 207 220 234 324 338 334 339 338 335 337 336 334 339
237 234 232 230 230 225 219 229 218 235 227 232 229 222 226 222 231 217 212 209 206 210 203 206 206 212 210 203 199 202 213 220 222 220 214 217 224 234 256 273 289 306 313 318 322 326 323 331 339
235 235 233 231 230 227 222 203 239 228 229 230 228 224 223 220 227 235 208 213 212 214 209 205 207 208 214 207 203 205 217 223 226 226 228 231 231 245 256 260 275 290 302 311 315 314 320 329 332
234 234 234 233 230 228 223 219 208 230 226 233 230 229 224 221 224 240 240 210 204 205 223 207 213 210 213 212 207 207 219 227 230 234 238 242 246 252 252 259 271 286 298 299 300 307 321 327 328
234 233 233 235 231 227 226 220 212 231 216 228 233 227 230 223 221 228 240 228 210 210 215 214 213 214 216 215 212 208 217 229 235 240 245 245 248 254 255 263 275 282 288 295 298 308 316 317 321
234 233 233 234 232 227 228 226 221 226 218 219 233 229 234 227 225 221 224 243 233 210 226 230 217 220 216 217 215 215 219 230 240 247 251 251 251 252 255 263 270 278 289 292 296 305 306 309 316
235 234 232 229 230 226 232 228 229 225 222 214 228 225 232 225 226 223 223 228 232 226 222 240 229 220 222 219 219 221 224 230 242 247 250 252 251 252 257 267 273 283 286 288 296 299 301 304 309
234 233 231 228 228 228 223 233 229 221 218 217 233 224 230 218 226 225 223 226 224 214 234 240 233 221 220 218 220 220 224 230 240 248 251 254 256 263 271 275 281 285 288 293 294 293 294 297 301
234 234 232 232 230 230 227 229 227 221 220 216 220 219 229 221 227 225 220 223 228 230 218 228 235 227 219 215 220 221 224 229 236 244 252 258 269 272 276 282 286 289 291 293 292 292 293 295 297
234 235 232 229 227 228 227 227 229 220 219 219 222 228 226 221 222 223 219 216 227 229 222 220 224 219 220 217 218 219 225 231 240 247 257 265 273 277 283 288 292 290 292 296 294 294 293 292 292
241 232 230 227 223 226 223 222 228 219 220 221 214 221 221 215 220 218 217 220 220 225 218 223 219 215 217 218 218 222 227 235 243 252 257 265 273 279 286 293 296 300 302 297 291 294 292 289 291
242 239 233 226 224 225 222 221 223 217 217 217 211 215 221 213 219 217 212 217 216 218 219 224 222 219 219 217 218 223 232 238 245 251 258 266 274 281 289 299 309 305 296 289 287 286 284 287 287
241 243 235 226 222 224 225 221 221 218 215 219 217 214 217 213 218 217 214 217 215 217 217 214 217 221 224 222 220 223 232 236 243 256 265 269 277 285 295 301 300 295 290 287 287 284 280 280 282
242 259 240 227 223 222 221 224 218 219 217 218 216 213 211 211 213 214 213 218 216 211 209 204 218 223 228 226 226 225 233 239 247 258 265 270 277 283 296 297 295 291 288 287 287 287 286 286 280
256 263 247 225 222 218 218 218 216 218 216 215 214 211 210 209 210 206 210 210 212 214 203 207 205 205 222 224 224 227 236 242 250 257 263 267 276 289 295 290 294 292 294 295 294 293 298 293 297
256 265 258 230 222 218 216 216 217 215 216 214 212 209 208 205 205 205 207 209 214 215 212 214 213 248 238 224 228 231 242 244 253 262 267 278 290 294 295 295 298 300 304 300 296 293 328 333 357
249 269 250 239 218 216 211 215 213 217 210 214 212 208 206 205 204 205 208 216 216 217 215 221 229 231 219 229 222 230 242 255 263 271 282 289 295 296 292 293 301 306 311 302 299 318 316 333 338
238 209 228 231 221 218 211 213 213 210 211 208 206 207 203 204 202 205 211 217 221 224 229 227 233 231 222 225 250 245 251 260 265 272 280 289 297 293 293 299 303 304 313 321 327 336 314 321 334
223 228 220 209 203 212 210 214 208 210 210 208 207 206 204 204 201 204 210 216 222 225 231 232 235 231 227 240 234 245 254 257 265 276 287 292 291 293 298 299 300 305 322 348 333 332 329 321 320
232 228 219 215 224 214 211 211 207 206 206 206 202 205 203 203 201 204 213 216 219 223 227 229 237 228 223 223 233 240 250 262 270 284 285 288 295 302 306 307 296 306 327 330 326 319 315 317 324
231 246 217 218 208 203 215 215 208 204 208 204 203 202 203 202 198 205 212 211 214 216 216 225 229 226 224 235 234 245 254 265 272 284 288 295 301 301 289 289 299 317 327 321 319 319 328 329 326
216 225 222 219 209 198 205 211 208 209 209 205 203 203 202 200 197 207 217 212 209 195 217 221 222 236 237 236 239 248 254 267 276 281 293 286 294 304 303 307 313 323 327 325 325 330 330 329 327
218 227 221 215 213 210 193 205 196 216 206 206 203 202 202 200 198 209 213 208 221 217 231 210 224 233 233 233 241 251 261 272 278 283 286 291 293 292 295 312 326 323 319 317 326 334 332 330 332
206 213 201 218 216 212 209 206 183 211 201 201 203 202 201 201 200 209 214 218 220 222 232 222 230 235 238 237 243 262 263 271 278 280 283 293 282 287 307 321 320 319 325 328 333 330 328 331 331
223 208 173 205 220 214 194 218 184 184 193 197 199 203 200 201 201 207 212 217 220 218 224 230 218 214 238 247 248 256 259 261 268 274 279 283 274 276 304 320 331 331 323 325 326 324 327 331 334
206 205 191 236 193 202 212 209 188 194 198 192 195 202 199 202 200 205 211 217 215 212 222 231 233 230 234 249 238 252 256 264 267 267 279 271 264 283 315 327 327 317 317 317 316 326 331 338 337
204 212 201 210 198 205 198 215 193 202 194 190 193 201 198 202 199 203 211 221 208 215 221 228 232 235 260 257 254 248 253 260 261 264 266 262 277 299 311 322 316 311 310 314 322 328 334 338 335
214 219 216 212 205 201 202 206 210 206 205 196 192 198 199 200 197 201 213 220 216 213 218 225 231 242 256 256 254 254 257 265 263 261 263 269 276 288 299 311 310 307 311 315 323 327 337 334 335
202 220 222 219 220 199 199 190 204 209 214 201 194 197 198 195 195 202 211 214 210 220 222 225 233 243 251 250 250 250 253 263 258 259 260 258 262 279 295 307 308 307 309 313 322 333 338 338 339
Height
5855 5858 5861 5864 5868 5868 5873 5879 5884 5890 5886 5886 5885 5890 5890 5892 5892 5893 5892 5899 5901 5903 5905 5906 5908 5909 5910 5910 5910 5913 5914 5916 5915 5915 5915 5916 5916 5915 5914 5914 5914 5914 5913 5912 5911 5909 5908 5907 5906
5849 5852 5854 5857 5857 5860 5870 5876 5880 5886 5884 5878 5885 5888 5889 5887 5891 5888 5886 5898 5898 5900 5903 5905 5906 5908 5908 5909 5909 5912 5914 5915 5916 5915 5915 5915 5915 5915 5914 5914 5914 5913 5912 5911 5909 5909 5908 5906 5905
5841 5844 5846 5847 5848 5852 5866 5874 5877 5879 5878 5878 5882 5885 5883 5886 5887 5889 5892 5895 5895 5898 5901 5903 5904 5906 5906 5908 5908 5910 5912 5913 5914 5915 5915 5914 5914 5915 5915 5914 5912 5912 5911 5910 5909 5909 5907 5906 5905
5833 5835 5837 5836 5842 5854 5862 5870 5878 5876 5872 5873 5878 5882 5883 5885 5884 5884 5886 5890 5894 5896 5898 5901 5902 5903 5904 5905 5907 5909 5911 5912 5913 5913 5914 5914 5914 5915 5913 5912 5912 5911 5910 5910 5908 5908 5906 5906 5904
5822 5824 5825 5829 5838 5848 5854 5860 5869 5865 5870 5870 5874 5875 5877 5881 5883 5883 5884 5886 5891 5895 5897 5898 5900 5901 5902 5903 5904 5906 5909 5910 5911 5912 5913 5913 5914 5913 5912 5912 5911 5910 5910 5908 5907 5906 5906 5905 5904
5810 5814 5815 5820 5833 5841 5845 5851 5855 5856 5864 5868 5866 5871 5871 5879 5880 5882 5884 5884 5885 5891 5894 5896 5897 5898 5900 5901 5903 5904 5906 5908 5910 5911 5912 5912 5912 5911 5911 5910 5910 5909 5908 5908 5906 5906 5904 5902 5901
5798 5803 5806 5814 5822 5831 5836 5842 5843 5848 5857 5863 5862 5866 5864 5872 5876 5880 5882 5881 5882 5887 5890 5893 5895 5897 5898 5899 5901 5903 5904 5907 5909 5910 5911 5910 5910 5909 5909 5909 5908 5908 5908 5907 5906 5904 5902 5901 5900
5786 5789 5792 5802 5811 5821 5828 5834 5836 5843 5850 5859 5856 5859 5861 5865 5870 5874 5877 5879 5881 5882 5886 5890 5892 5894 5896 5898 5900 5902 5903 5905 5908 5908 5908 5908 5907 5906 5907 5907 5908 5908 5907 5906 5905 5904 5902 5900 5898
5771 5774 5779 5793 5803 5812 5820 5822 5826 5836 5840 5848 5847 5857 5845 5863 5866 5870 5873 5876 5878 5880 5884 5886 5889 5890 5893 5895 5897 5899 5901 5903 5905 5905 5905 5905 5906 5906 5907 5907 5907 5907 5905 5904 5903 5901 5899 5897 5894
5755 5760 5773 5787 5794 5802 5810 5812 5816 5825 5832 5837 5838 5845 5843 5860 5862 5866 5870 5872 5873 5876 5879 5882 5885 5887 5891 5891 5895 5897 5899 5900 5901 5902 5903 5905 5906 5906 5905 5906 5906 5906 5904 5902 5900 5899 5896 5893 5890
5743 5748 5763 5771 5780 5786 5794 5800 5805 5815 5822 5829 5836 5837 5846 5853 5856 5861 5865 5868 5870 5871 5875 5878 5881 5884 5886 5889 5891 5893 5895 5897 5899 5901 5903 5904 5904 5905 5905 5905 5905 5904 5902 5899 5897 5895 5893 5889 5886
5727 5737 5744 5754 5762 5770 5777 5786 5793 5807 5817 5820 5829 5832 5837 5844 5848 5855 5860 5863 5866 5867 5870 5873 5876 5879 5883 5885 5888 5890 5893 5895 5898 5899 5901 5902 5903 5903 5904 5904 5903 5902 5901 5898 5893 5890 5889 5886 5882
5720 5725 5727 5739 5747 5753 5763 5775 5785 5795 5803 5808 5812 5822 5827 5840 5843 5850 5855 5858 5861 5864 5867 5870 5873 5877 5880 5882 5885 5888 5891 5893 5895 5898 5899 5900 5901 5902 5902 5902 5901 5899 5897 5893 5889 5887 5885 5882 5877
5708 5708 5708 5721 5733 5744 5755 5765 5772 5785 5794 5798 5806 5816 5826 5835 5839 5845 5850 5853 5857 5860 5864 5868 5872 5876 5879 5882 5883 5886 5889 5891 5893 5896 5897 5898 5899 5900 5900 5899 5898 5896 5893 5889 5886 5883 5879 5874 5870
5699 5696 5698 5707 5721 5732 5745 5750 5766 5779 5785 5790 5801 5811 5819 5827 5833 5839 5844 5848 5851 5856 5860 5864 5870 5873 5876 5879 5882 5884 5887 5889 5891 5894 5895 5896 5896 5897 5897 5895 5894 5891 5888 5885 5881 5877 5872 5868 5861
5687 5686 5684 5695 5704 5719 5730 5747 5760 5763 5772 5782 5792 5801 5811 5820 5828 5834 5838 5841 5846 5851 5857 5862 5865 5869 5873 5876 5880 5882 5885 5886 5889 5891 5891 5893 5893 5893 5893 5889 5888 5885 5882 5879 5874 5870 5866 5859 5849
5677 5678 5676 5684 5694 5711 5723 5737 5744 5752 5766 5773 5782 5793 5803 5812 5820 5828 5832 5837 5842 5848 5853 5857 5860 5863 5869 5873 5877 5880 5882 5883 5886 5888 5888 5890 5890 5889 5887 5885 5883 5881 5877 5870 5864 5862 5858 5849 5841
5677 5675 5673 5679 5686 5698 5714 5721 5732 5745 5756 5764 5777 5787 5796 5805 5814 5821 5827 5832 5838 5843 5848 5852 5857 5861 5866 5870 5873 5876 5879 5882 5883 5884 5885 5886 5886 5884 5881 5879 5878 5875 5868 5859 5854 5854 5852 5845 5840
5665 5669 5672 5678 5682 5690 5700 5708 5722 5735 5746 5756 5767 5776 5786 5796 5806 5813 5820 5827 5833 5838 5844 5849 5855 5859 5863 5868 5871 5874 5876 5878 5879 5880 5881 5881 5880 5878 5876 5875 5873 5869 5865 5856 5848 5846 5846 5843 5839
5657 5661 5666 5670 5676 5677 5687 5696 5711 5725 5736 5750 5762 5771 5782 5790 5799 5808 5815 5821 5830 5835 5840 5846 5851 5856 5861 5864 5869 5870 5873 5874 5875 5876 5878 5877 5875 5873 5871 5869 5867 5865 5862 5855 5853 5849 5843 5841 5838
5651 5655 5662 5666 5668 5671 5679 5689 5699 5718 5730 5742 5753 5765 5775 5785 5796 5804 5811 5818 5823 5830 5837 5843 5848 5851 5855 5859 5862 5866 5868 5869 5871 5872 5872 5871 5870 5869 5865 5864 5861 5861 5858 5854 5850 5846 5842 5838 5835
5648 5652 5653 5656 5660 5669 5678 5688 5700 5713 5722 5735 5747 5757 5768 5780 5792 5799 5803 5806 5813 5821 5830 5838 5842 5846 5849 5855 5859 5862 5864 5866 5867 5868 5867 5866 5865 5863 5861 5859 5858 5857 5854 5850 5847 5844 5838 5834 5833
5642 5643 5647 5652 5657 5661 5671 5680 5698 5708 5713 5727 5740 5753 5763 5773 5787 5789 5788 5780 5800 5812 5825 5832 5837 5842 5847 5852 5856 5858 5859 5862 5864 5862 5863 5862 5860 5859 5857 5856 5855 5853 5852 5848 5843 5839 5834 5832 5829
5637 5641 5645 5650 5655 5659 5668 5680 5690 5694 5708 5725 5737 5749 5760 5769 5781 5783 5790 5793 5803 5813 5818 5824 5831 5838 5844 5848 5852 5854 5857 5859 5859 5859 5858 5857 5856 5856 5855 5854 5852 5851 5848 5844 5840 5835 5831 5829 5824
5636 5639 5645 5650 5653 5658 5667 5675 5690 5700 5709 5722 5734 5745 5755 5764 5773 5779 5788 5796 5803 5809 5811 5818 5825 5833 5840 5845 5850 5853 5854 5856 5854 5855 5854 5854 5853 5852 5852 5851 5850 5847 5844 5840 5835 5832 5830 5826 5821
5635 5637 5644 5647 5655 5661 5665 5667 5683 5690 5700 5716 5728 5739 5749 5757 5767 5779 5785 5791 5797 5804 5812 5816 5816 5826 5835 5840 5845 5848 5850 5851 5851 5852 5851 5850 5850 5850 5850 5850 5847 5843 5840 5837 5834 5831 5827 5822 5815
5630 5632 5640 5637 5645 5652 5663 5669 5681 5685 5696 5708 5720 5727 5739 5749 5759 5771 5779 5782 5789 5798 5807 5812 5817 5825 5832 5835 5841 5843 5845 5847 5847 5848 5847 5848 5847 5847 5846 5845 5843 5841 5838 5835 5831 5827 5823 5816 5810
5624 5629 5634 5638 5647 5655 5661 5667 5675 5679 5688 5700 5712 5722 5734 5743 5755 5770 5773 5756 5775 5797 5801 5808 5815 5821 5824 5830 5836 5839 5841 5842 5843 5843 5844 5844 5844 5843 5843 5843 5841 5838 5835 5831 5827 5823 5818 5812 5806
5621 5625 5631 5637 5643 5651 5660 5668 5675 5681 5688 5698 5708 5718 5727 5736 5756 5770 5768 5768 5782 5790 5797 5803 5809 5814 5819 5826 5831 5833 5836 5837 5839 5840 5840 5840 5840 5842 5841 5840 5838 5835 5830 5826 5823 5819 5814 5809 5803
5618 5623 5627 5631 5638 5643 5648 5659 5677 5678 5683 5693 5705 5715 5724 5739 5755 5758 5764 5757 5768 5784 5792 5798 5803 5809 5815 5821 5826 5829 5832 5834 5835 5835 5836 5837 5838 5840 5838 5837 5834 5830 5827 5823 5819 5815 5810 5805 5800